Simultaneous Nadir Overpasses (SNOs) Predictions

Prediction of SNOs between FY3D and TERRA Satellite Orbit:

Table of predicted SNOs for the next 14.0 days since TLE Epoch: 7/25/2020
Index Date (FY3D) Time (FY3D) Lat,Lon (FY3D) SZA (FY3D ) Date (TERRA) Time (TERRA) Lat,Lon (TERRA) SZA (TERRA ) Distance(km) Time Diff (sec)
1 07/25/2020 12:12:09 68.90, -3.68 49.33 07/25/2020 12:12:50 68.92, -3.75 49.34 3.22 41
2 07/25/2020 13:02:51 -68.81, 163.75 130.76 07/25/2020 13:02:20 -68.80, 163.74 130.77 1.12 31
3 07/28/2020 04:28:33 68.95, 112.16 49.98 07/28/2020 04:29:19 68.93, 112.14 49.96 2.56 46
4 07/28/2020 05:19:14 -68.80, -80.32 130.16 07/28/2020 05:18:49 -68.82, -80.36 130.15 2.25 25
5 07/30/2020 20:44:55 68.94,-131.92 50.62 07/30/2020 20:45:47 68.93,-131.97 50.61 2.62 52
6 07/30/2020 21:35:37 -68.85, 35.53 129.47 07/30/2020 21:35:17 -68.83, 35.52 129.49 2.81 20
7 07/30/2020 22:26:05 67.92,-155.95 49.59 07/30/2020 22:24:57 67.99,-157.85 49.70 79.58 68
8 08/02/2020 13:01:19 68.99, -16.07 51.35 08/02/2020 13:02:15 68.99, -16.02 51.34 1.95 56
9 08/02/2020 13:52:00 -68.84, 151.45 128.80 08/02/2020 13:51:46 -68.83, 151.41 128.81 2.51 14
10 08/02/2020 14:42:32 68.13, -40.30 50.49 08/02/2020 14:41:23 68.15, -41.77 50.54 60.84 69
11 08/05/2020 05:17:42 68.99, 99.85 52.06 08/05/2020 05:18:44 68.98, 99.85 52.04 0.78 62
12 08/05/2020 06:08:24 -68.89, -92.70 128.03 08/05/2020 06:08:14 -68.88, -92.65 128.05 2.79 10
13 08/05/2020 06:58:59 68.34, 75.34 51.42 08/05/2020 06:57:48 68.37, 74.37 51.47 39.90 71
14 08/07/2020 21:34:05 68.98,-144.23 52.80 08/07/2020 21:35:13 68.97,-144.28 52.78 2.61 68
15 08/07/2020 22:24:47 -68.89, 23.21 127.29 08/07/2020 22:24:43 -68.87, 23.22 127.31 2.17 4
16 08/07/2020 23:15:25 68.50,-168.95 52.32 08/07/2020 23:14:13 68.58,-169.49 52.42 23.78 72
